• In Deutschland
  • Länderverzeichnis
  • Für 7 Tage
  • Wassertemperatur
  • Satellitenkarten
  • Wetterkarte
  • Widgets
  • user-avatar
    Anmelden

    Stündliche Wetter Ben-Gurion

    Heute, 22 Oktober, Montag

    Zeit Temperatur Niederschläge Wind Luftdruck Luftfeuchtigkeit
    00:00 +26°C° 0 mm 2 m/S 756 mmHg 64%
    01:00 +26°C° 0 mm 2 m/S 756 mmHg 63%
    02:00 +25°C° 0 mm 3 m/S 756 mmHg 61%
    03:00 +25°C° 0 mm 3 m/S 756 mmHg 59%
    04:00 +25°C° 0 mm 3 m/S 756 mmHg 57%
    05:00 +25°C° 0 mm 3 m/S 756 mmHg 56%
    06:00 +26°C° 0 mm 3 m/S 756 mmHg 50%
    07:00 +27°C° 0 mm 4 m/S 756 mmHg 45%
    08:00 +29°C° 0 mm 3 m/S 756 mmHg 37%
    09:00 +30°C° 0 mm 3 m/S 756 mmHg 32%
    10:00 +33°C° 0 mm 3 m/S 756 mmHg 28%
    11:00 +34°C° 0 mm 3 m/S 756 mmHg 23%
    12:00 +35°C° 0 mm 3 m/S 756 mmHg 23%
    13:00 +35°C° 0 mm 3 m/S 755 mmHg 22%
    14:00 +36°C° 0 mm 2 m/S 755 mmHg 21%
    15:00 +35°C° 0 mm 2 m/S 755 mmHg 23%
    16:00 +34°C° 0 mm 2 m/S 754 mmHg 24%
    17:00 +32°C° 0 mm 2 m/S 754 mmHg 26%
    18:00 +32°C° 0 mm 2 m/S 754 mmHg 27%
    19:00 +31°C° 0 mm 3 m/S 754 mmHg 27%
    20:00 +30°C° 0 mm 3 m/S 754 mmHg 28%
    21:00 +30°C° 0.2 mm 4 m/S 754 mmHg 30%
    22:00 +29°C° 0.2 mm 4 m/S 754 mmHg 31%
    23:00 +29°C° 0.2 mm 4 m/S 754 mmHg 33%

    Morgen, 23 Oktober, Dienstag

    Zeit Temperatur Niederschläge Wind Luftdruck Luftfeuchtigkeit
    00:00 +29°C° 0.1 mm 4 m/S 754 mmHg 34%
    01:00 +28°C° 0.1 mm 3 m/S 754 mmHg 35%
    02:00 +28°C° 0.1 mm 3 m/S 754 mmHg 36%
    03:00 +28°C° 0 mm 3 m/S 754 mmHg 35%
    04:00 +28°C° 0 mm 4 m/S 754 mmHg 34%
    05:00 +28°C° 0 mm 4 m/S 754 mmHg 34%
    06:00 +29°C° 0 mm 4 m/S 754 mmHg 32%
    07:00 +30°C° 0 mm 4 m/S 754 mmHg 30%
    08:00 +32°C° 0 mm 4 m/S 755 mmHg 29%
    09:00 +33°C° 0 mm 4 m/S 755 mmHg 27%
    10:00 +34°C° 0 mm 4 m/S 755 mmHg 25%
    11:00 +35°C° 0 mm 4 m/S 755 mmHg 23%
    12:00 +35°C° 0 mm 4 m/S 754 mmHg 24%
    13:00 +35°C° 0 mm 5 m/S 754 mmHg 26%
    14:00 +35°C° 0 mm 5 m/S 753 mmHg 27%
    15:00 +34°C° 0 mm 4 m/S 753 mmHg 31%
    16:00 +31°C° 0 mm 3 m/S 753 mmHg 36%
    17:00 +30°C° 0 mm 2 m/S 753 mmHg 40%
    18:00 +30°C° 0 mm 2 m/S 753 mmHg 42%
    19:00 +29°C° 0 mm 2 m/S 754 mmHg 45%
    20:00 +29°C° 0 mm 1 m/S 754 mmHg 47%
    21:00 +28°C° 0 mm 1 m/S 754 mmHg 45%
    22:00 +28°C° 0 mm 2 m/S 754 mmHg 42%
    23:00 +28°C° 0 mm 2 m/S 753 mmHg 39%

    übermorgen, 24 Oktober, Mittwoch

    Zeit Temperatur Niederschläge Wind Luftdruck Luftfeuchtigkeit
    00:00 +28°C° 0 mm 1 m/S 753 mmHg 39%
    01:00 +28°C° 0 mm 1 m/S 753 mmHg 38%
    02:00 +28°C° 0 mm 1 m/S 753 mmHg 37%
    03:00 +28°C° 0 mm 1 m/S 753 mmHg 36%
    04:00 +28°C° 0 mm 2 m/S 753 mmHg 35%
    05:00 +28°C° 0 mm 2 m/S 752 mmHg 34%
    06:00 +28°C° 0 mm 3 m/S 753 mmHg 33%
    07:00 +29°C° 0 mm 3 m/S 753 mmHg 31%
    08:00 +29°C° 0 mm 4 m/S 753 mmHg 30%
    09:00 +32°C° 0 mm 4 m/S 753 mmHg 28%
    10:00 +33°C° 0 mm 4 m/S 752 mmHg 26%
    11:00 +34°C° 0 mm 4 m/S 752 mmHg 24%
    12:00 +34°C° 0 mm 4 m/S 751 mmHg 23%
    13:00 +35°C° 0 mm 4 m/S 751 mmHg 22%
    14:00 +35°C° 0 mm 4 m/S 750 mmHg 21%
    15:00 +34°C° 0 mm 3 m/S 750 mmHg 25%
    16:00 +33°C° 0 mm 3 m/S 750 mmHg 28%
    17:00 +31°C° 0 mm 2 m/S 750 mmHg 32%
    18:00 +31°C° 0 mm 2 m/S 750 mmHg 30%
    19:00 +30°C° 0 mm 2 m/S 750 mmHg 28%
    20:00 +30°C° 0 mm 2 m/S 750 mmHg 26%
    21:00 +29°C° 0 mm 2 m/S 750 mmHg 26%
    22:00 +29°C° 0 mm 2 m/S 750 mmHg 27%
    23:00 +29°C° 0 mm 2 m/S 750 mmHg 27%

    25 Oktober, Donnerstag

    Zeit Temperatur Niederschläge Wind Luftdruck Luftfeuchtigkeit
    00:00 +28°C° 0 mm 3 m/S 750 mmHg 28%
    01:00 +28°C° 0 mm 4 m/S 750 mmHg 29%
    02:00 +28°C° 0 mm 4 m/S 750 mmHg 30%
    03:00 +27°C° 0 mm 5 m/S 750 mmHg 43%
    04:00 +25°C° 0 mm 5 m/S 750 mmHg 55%
    05:00 +23°C° 0 mm 6 m/S 750 mmHg 67%
    06:00 +25°C° 0.4 mm 5 m/S 750 mmHg 67%
    07:00 +25°C° 0.4 mm 4 m/S 750 mmHg 67%
    08:00 +25°C° 0.4 mm 3 m/S 751 mmHg 66%
    09:00 +27°C° 0 mm 4 m/S 751 mmHg 59%
    10:00 +28°C° 0 mm 4 m/S 751 mmHg 51%
    11:00 +30°C° 0 mm 4 m/S 750 mmHg 44%
    12:00 +29°C° 0 mm 5 m/S 750 mmHg 48%
    13:00 +29°C° 0 mm 6 m/S 750 mmHg 52%
    14:00 +28°C° 0 mm 6 m/S 750 mmHg 56%
    15:00 +28°C° 0.1 mm 6 m/S 750 mmHg 59%
    16:00 +27°C° 0.1 mm 7 m/S 750 mmHg 62%
    17:00 +26°C° 0.1 mm 7 m/S 751 mmHg 65%
    18:00 +26°C° 0.1 mm 7 m/S 751 mmHg 65%
    19:00 +26°C° 0.1 mm 6 m/S 752 mmHg 65%
    20:00 +24°C° 0.1 mm 6 m/S 752 mmHg 64%
    21:00 +24°C° 0.2 mm 6 m/S 753 mmHg 66%
    22:00 +24°C° 0.2 mm 6 m/S 753 mmHg 68%
    23:00 +23°C° 0.2 mm 6 m/S 753 mmHg 69%

    26 Oktober, Freitag

    Zeit Temperatur Niederschläge Wind Luftdruck Luftfeuchtigkeit
    00:00 +23°C° 0.2 mm 5 m/S 753 mmHg 69%
    01:00 +23°C° 0.2 mm 5 m/S 753 mmHg 70%
    02:00 +23°C° 0.2 mm 4 m/S 753 mmHg 70%
    03:00 +22°C° 0.1 mm 4 m/S 754 mmHg 70%
    04:00 +22°C° 0.1 mm 4 m/S 754 mmHg 70%
    05:00 +22°C° 0.1 mm 4 m/S 754 mmHg 70%
    06:00 +23°C° 0 mm 4 m/S 755 mmHg 66%
    07:00 +23°C° 0 mm 4 m/S 755 mmHg 63%
    08:00 +23°C° 0 mm 4 m/S 756 mmHg 59%
    09:00 +25°C° 0 mm 4 m/S 756 mmHg 55%
    10:00 +26°C° 0 mm 4 m/S 756 mmHg 50%
    11:00 +26°C° 0 mm 4 m/S 757 mmHg 46%
    12:00 +26°C° 0 mm 5 m/S 756 mmHg 45%
    13:00 +26°C° 0 mm 5 m/S 756 mmHg 44%
    14:00 +27°C° 0 mm 5 m/S 756 mmHg 43%
    15:00 +26°C° 0 mm 4 m/S 756 mmHg 45%
    16:00 +25°C° 0 mm 3 m/S 757 mmHg 47%
    17:00 +25°C° 0 mm 3 m/S 757 mmHg 49%
    18:00 +24°C° 0 mm 2 m/S 757 mmHg 50%
    19:00 +24°C° 0 mm 1 m/S 758 mmHg 52%
    20:00 +24°C° 0 mm 1 m/S 758 mmHg 54%
    21:00 +23°C° 0 mm 1 m/S 759 mmHg 55%
    22:00 +23°C° 0 mm 1 m/S 759 mmHg 57%
    23:00 +23°C° 0 mm 1 m/S 759 mmHg 58%

    27 Oktober, Samstag

    Zeit Temperatur Niederschläge Wind Luftdruck Luftfeuchtigkeit
    00:00 +22°C° 0 mm 1 m/S 759 mmHg 59%
    01:00 +22°C° 0 mm 1 m/S 759 mmHg 60%
    02:00 +22°C° 0 mm 1 m/S 759 mmHg 61%
    03:00 +21°C° 0 mm 1 m/S 759 mmHg 61%
    04:00 +21°C° 0 mm 1 m/S 760 mmHg 61%
    05:00 +20°C° 0 mm 2 m/S 760 mmHg 62%
    06:00 +21°C° 0 mm 2 m/S 760 mmHg 58%
    07:00 +23°C° 0 mm 2 m/S 760 mmHg 54%
    08:00 +23°C° 0 mm 2 m/S 761 mmHg 51%
    09:00 +25°C° 0 mm 2 m/S 760 mmHg 45%
    10:00 +26°C° 0 mm 2 m/S 760 mmHg 38%
    11:00 +27°C° 0 mm 2 m/S 760 mmHg 32%
    12:00 +28°C° 0 mm 2 m/S 760 mmHg 30%
    13:00 +28°C° 0 mm 2 m/S 759 mmHg 29%
    14:00 +29°C° 0 mm 3 m/S 759 mmHg 27%
    15:00 +29°C° 0 mm 3 m/S 759 mmHg 29%
    16:00 +28°C° 0 mm 4 m/S 759 mmHg 31%
    17:00 +28°C° 0 mm 4 m/S 759 mmHg 34%
    18:00 +27°C° 0 mm 4 m/S 759 mmHg 35%
    19:00 +27°C° 0 mm 4 m/S 759 mmHg 37%
    20:00 +26°C° 0 mm 4 m/S 759 mmHg 39%
    21:00 +26°C° 0 mm 4 m/S 759 mmHg 37%
    22:00 +26°C° 0 mm 4 m/S 759 mmHg 35%
    23:00 +26°C° 0 mm 4 m/S 759 mmHg 34%

    28 Oktober, Sonntag

    Zeit Temperatur Niederschläge Wind Luftdruck Luftfeuchtigkeit
    00:00 +26°C° 0 mm 4 m/S 759 mmHg 34%
    01:00 +26°C° 0 mm 4 m/S 758 mmHg 35%
    02:00 +25°C° 0 mm 5 m/S 758 mmHg 36%
    03:00 +25°C° 0 mm 5 m/S 758 mmHg 38%
    04:00 +25°C° 0 mm 5 m/S 758 mmHg 39%
    05:00 +25°C° 0 mm 5 m/S 758 mmHg 41%
    06:00 +26°C° 0 mm 5 m/S 759 mmHg 40%
    07:00 +27°C° 0 mm 6 m/S 759 mmHg 39%
    08:00 +27°C° 0 mm 6 m/S 759 mmHg 38%
    09:00 +28°C° 0 mm 6 m/S 759 mmHg 36%
    10:00 +30°C° 0 mm 6 m/S 759 mmHg 34%
    11:00 +32°C° 0 mm 6 m/S 759 mmHg 33%
    12:00 +32°C° 0 mm 6 m/S 758 mmHg 32%
    13:00 +33°C° 0 mm 5 m/S 758 mmHg 31%
    14:00 +33°C° 0 mm 5 m/S 757 mmHg 30%
    15:00 +33°C° 0 mm 4 m/S 757 mmHg 32%
    16:00 +32°C° 0 mm 4 m/S 757 mmHg 34%
    17:00 +32°C° 0 mm 4 m/S 757 mmHg 36%
    18:00 +30°C° 0 mm 4 m/S 757 mmHg 37%
    19:00 +30°C° 0 mm 4 m/S 757 mmHg 38%
    20:00 +29°C° 0 mm 4 m/S 757 mmHg 39%
    21:00 +29°C° 0 mm 4 m/S 757 mmHg 39%
    22:00 +29°C° 0 mm 5 m/S 757 mmHg 39%
    23:00 +28°C° 0 mm 5 m/S 757 mmHg 39%
    Mehr zeigen